Regional Weather Roundup
Issued by NWS Green Bay, WI

Home | Current Version | Previous Version | Graphics & Text | Print | Product List | Glossary Off
Versions: 1 2 3 4 5 6 7 8 9 10 11 12 13 14 15 16 17 18 19 20 21 22 23 24 25 26 27 28 29 30 31 32 33 34 35 36 37 38 39 40 41 42 43 44 45 46 47 48 49 50

000
ASUS43 KGRB 200459
RWRGRB

NORTH-CENTRAL AND NORTHEAST WISCONSIN REGIONAL WEATHER ROUNDUP
NATIONAL WEATHER SERVICE GREEN BAY WI
1200 AM CDT SAT SEP 20 2014

WIZ005-009-010>012-018-019-200600-
NORTH CENTRAL WISCONSIN

CITY           SKY/WX    TMP DP  RH WIND       PRES   REMARKS
IRONWOOD       CLOUDY    66  61  82 SW13G18   29.62F
MANITOWISH WTR NOT AVBL
ARBOR VITAE    NOT AVBL
EAGLE RIVER    NOT AVBL
LAND O LAKES   NOT AVBL
RHINELANDER    CLOUDY    63  55  75 SW15      29.73F
PHILLIPS       PTCLDY    63  59  85 SW8       29.69F
ANTIGO         NOT AVBL
TOMAHAWK       NOT AVBL
MERRILL        NOT AVBL
$$

WIZ013-073-200600-
NORTHEAST WISCONSIN

CITY           SKY/WX    TMP DP  RH WIND       PRES   REMARKS
IRON MOUNTAIN  CLOUDY    65  52  62 S8        29.72S
MARINETTE      CLOUDY    64  52  63 SW12G21   29.75F
$$

WIZ017-030-035>037-045-200600-
CENTRAL WISCONSIN

CITY           SKY/WX    TMP DP  RH WIND       PRES   REMARKS
MEDFORD        NOT AVBL
WAUSAU         CLOUDY    64  55  72 S13       29.73F
MOSINEE        TSTM      61  55  82 S13       29.77F
MARSHFIELD     CLOUDY    65  56  72 S13       29.75F
WISC RAPIDS    CLOUDY    66  55  67 S16G22    29.77F
STEVENS POINT  NOT AVBL
WAUPACA        NOT AVBL
SHAWANO        CLOUDY    66  53  62 S6        29.77F
CLINTONVILLE   CLOUDY    64  52  63 SW10      29.78F
$$

WIZ038-039-048-051-200600-
FOX VALLEY

CITY           SKY/WX    TMP DP  RH WIND       PRES   REMARKS
NWS GREEN BAY  CLOUDY    65  53  65 S12G18    29.80F
APPLETON       NOT AVBL
OSHKOSH        MOCLDY    64  53  67 S12       29.82F
FOND DU LAC    PTCLDY    63  51  65 SW9       29.84S
$$

WIZ022-050-052-200600-
EAST CENTRAL WISCONSIN

CITY           SKY/WX    TMP DP  RH WIND       PRES   REMARKS
STURGEON BAY   CLOUDY    63  50  63 S15G22    29.79F
MANITOWOC      NOT AVBL
SHEBOYGAN      MOCLDY    63  49  60 S15       29.85S
$$

LMZ563-521-522-541>543-200600-
LAKESHORE

STATION/POSITION TIME  TEMP    WIND        PRES    VSBY  WAVE
                       AIR SEA DIR/SP/G                  HT/PER
                 (UTC) (F)     (DEG/KT/KT) (MB)    (MI)  (FT/S)
SHEBOYGAN LKSHOR 0400   63 54  190/ 20/ 22 1011.0S
KEWAUNEE LKSHORE 0400          180/ 11/ 13 1009.2F
NORTHPORT PIER   0400   62     180/  7/ 15 1008.5R
N MID LAKE BUOY  0400   62 58  210/ 25/ 31 1008.2F         9/ 8
S GREEN BAY BUOY 0400   62     VRB 16/ 19  1009.6
CHAMBERS ISLAND  0400   63     160/ 10/ 18 1008.5R
MENOMINEE LKSHOR 0400          190/ 11/ 15 1008.7S
$$


USA.gov is the U.S. government's official web portal to all federal, state and local government web resources and services.